| time (UTC) | temp C | wind direction | speed KPH | gust KPH | rain 1hr cm | rain 24hr cm | rain mn cm | humidity % | barometer mb |
| 20260906222443 | 30 | 221 | 4.8 | 9.7 | 0.00 | 0.00 | 0.00 | 41 | 826.3 |
| 20260906221939 | 30 | 213 | 4.8 | 9.7 | 0.00 | 0.00 | 0.00 | 41 | 826.3 |
| 20260906221441 | 30 | 163 | 4.8 | 9.7 | 0.00 | 0.00 | 0.00 | 40 | 826.3 |
| 20260906220938 | 31 | 210 | 4.8 | 9.7 | 0.00 | 0.00 | 0.00 | 40 | 826.1 |
| 20260906220441 | 31 | 173 | 4.8 | 9.7 | 0.00 | 0.00 | 0.00 | 40 | 826.2 |
| 20260906220154 | 31 | 212 | 6.4 | 14.5 | 0.00 | 0.00 | 0.00 | 39 | 826.4 |
| 20260906215434 | 31 | 152 | 6.4 | 14.5 | 0.00 | 0.00 | 0.00 | 39 | 826.4 |
| 20260906214933 | 31 | 87 | 8.0 | 12.9 | 0.00 | 0.00 | 0.00 | 39 | 826.4 |
| 20260906214435 | 31 | 140 | 8.0 | 14.5 | 0.00 | 0.00 | 0.00 | 39 | 826.6 |
| 20260906213429 | 31 | 110 | 6.4 | 12.9 | 0.00 | 0.00 | 0.00 | 39 | 826.7 |
| 20260906213144 | 31 | 222 | 6.4 | 14.5 | 0.00 | 0.00 | 0.00 | 39 | 826.7 |
| 20260906212424 | 31 | 92 | 6.4 | 14.5 | 0.00 | 0.00 | 0.00 | 39 | 826.7 |
| 20260906211640 | 31 | 205 | 6.4 | 11.3 | 0.00 | 0.00 | 0.00 | 39 | 826.9 |
| 20260906210922 | 30 | 198 | 4.8 | 11.3 | 0.00 | 0.00 | 0.00 | 39 | 826.9 |
| 20260906210420 | 30 | 194 | 8.0 | 11.3 | 0.00 | 0.00 | 0.00 | 40 | 827.1 |
| 20260906205919 | 30 | 131 | 8.0 | 17.7 | 0.00 | 0.00 | 0.00 | 40 | 827.2 |
| 20260906205645 | 30 | 114 | 9.7 | 17.7 | 0.00 | 0.00 | 0.00 | 40 | 827.2 |
| 20260906204918 | 30 | 119 | 9.7 | 17.7 | 0.00 | 0.00 | 0.00 | 40 | 827.3 |
| 20260906204404 | 30 | 136 | 9.7 | 17.7 | 0.00 | 0.00 | 0.00 | 41 | 827.3 |
| 20260906204138 | 30 | 102 | 8.0 | 20.9 | 0.00 | 0.00 | 0.00 | 41 | 827.3 |
| 20260906203604 | 29 | 98 | 4.8 | 16.1 | 0.00 | 0.00 | 0.00 | 41 | 827.3 |
| 20260906203030 | 29 | 56 | 6.4 | 17.7 | 0.00 | 0.00 | 0.00 | 39 | 827.3 |
| 20260906202306 | 29 | 113 | 8.0 | 17.7 | 0.00 | 0.00 | 0.00 | 38 | 827.3 |
| 20260906201804 | 29 | 92 | 8.0 | 16.1 | 0.00 | 0.00 | 0.00 | 41 | 827.4 |
| 20260906201304 | 29 | 102 | 8.0 | 16.1 | 0.00 | 0.00 | 0.00 | 41 | 827.3 |
| 20260906200752 | 29 | 93 | 8.0 | 16.1 | 0.00 | 0.00 | 0.00 | 41 | 827.3 |
| 20260906200250 | 29 | 82 | 8.0 | 16.1 | 0.00 | 0.00 | 0.00 | 39 | 827.4 |
| 20260906195750 | 30 | 98 | 8.0 | 14.5 | 0.00 | 0.00 | 0.00 | 40 | 827.4 |
| 20260906195250 | 30 | 176 | 9.7 | 16.1 | 0.00 | 0.00 | 0.00 | 41 | 827.5 |
| 20260906195009 | 30 | 120 | 6.4 | 16.1 | 0.00 | 0.00 | 0.00 | 41 | 827.6 |
| 20260906194512 | 29 | 342 | 4.8 | 12.9 | 0.00 | 0.00 | 0.00 | 43 | 827.5 |
| 20260906193248 | 28 | 86 | 6.4 | 12.9 | 0.00 | 0.00 | 0.00 | 42 | 827.8 |
| 20260906192750 | 28 | 73 | 6.4 | 12.9 | 0.00 | 0.00 | 0.00 | 44 | 827.8 |
| 20260906192250 | 28 | 57 | 6.4 | 12.9 | 0.00 | 0.00 | 0.00 | 45 | 827.8 |
| 20260906191744 | 28 | 101 | 8.0 | 17.7 | 0.00 | 0.00 | 0.00 | 47 | 827.9 |
| 20260906191244 | 28 | 38 | 8.0 | 17.7 | 0.00 | 0.00 | 0.00 | 47 | 827.9 |
| 20260906190742 | 28 | 81 | 6.4 | 16.1 | 0.00 | 0.00 | 0.00 | 47 | 828.0 |
| 20260906190243 | 28 | 107 | 6.4 | 17.7 | 0.00 | 0.00 | 0.00 | 49 | 828.0 |
| 20260906185743 | 28 | 81 | 8.0 | 17.7 | 0.00 | 0.00 | 0.00 | 49 | 828.1 |
| 20260906185446 | 28 | 51 | 8.0 | 14.5 | 0.00 | 0.00 | 0.00 | 47 | 828.2 |
| 20260906184944 | 28 | 173 | 8.0 | 17.7 | 0.00 | 0.00 | 0.00 | 49 | 828.3 |
| 20260906184222 | 27 | 121 | 9.7 | 17.7 | 0.00 | 0.00 | 0.00 | 50 | 828.4 |
| 20260906183723 | 27 | 71 | 8.0 | 16.1 | 0.00 | 0.00 | 0.00 | 51 | 828.5 |
| 20260906183444 | 27 | 109 | 6.4 | 16.1 | 0.00 | 0.00 | 0.00 | 52 | 828.6 |
| 20260906182720 | 27 | 130 | 6.4 | 12.9 | 0.00 | 0.00 | 0.00 | 53 | 828.7 |
| 20260906182435 | 27 | 76 | 8.0 | 16.1 | 0.00 | 0.00 | 0.00 | 52 | 828.7 |
| 20260906181720 | 27 | 91 | 6.4 | 16.1 | 0.00 | 0.00 | 0.00 | 53 | 828.8 |
| 20260906181221 | 27 | 90 | 9.7 | 17.7 | 0.00 | 0.00 | 0.00 | 52 | 828.8 |
| 20260906180719 | 26 | 63 | 9.7 | 17.7 | 0.00 | 0.00 | 0.00 | 53 | 828.9 |
| 20260906180218 | 26 | 90 | 8.0 | 16.1 | 0.00 | 0.00 | 0.00 | 54 | 829.0 |
| 20260906175717 | 26 | 0 | 9.7 | 16.1 | 0.00 | 0.00 | 0.00 | 54 | 829.0 |
| 20260906175439 | 26 | 74 | 11.3 | 16.1 | 0.00 | 0.00 | 0.00 | 56 | 829.1 |
| 20260906174714 | 26 | 83 | 11.3 | 17.7 | 0.00 | 0.00 | 0.00 | 57 | 829.2 |
| 20260906174202 | 26 | 57 | 11.3 | 17.7 | 0.00 | 0.00 | 0.00 | 56 | 829.3 |
| 20260906173633 | 26 | 107 | 9.7 | 17.7 | 0.00 | 0.00 | 0.00 | 57 | 829.5 |
| 20260906173058 | 26 | 132 | 9.7 | 17.7 | 0.00 | 0.00 | 0.00 | 57 | 829.6 |
| 20260906172541 | 26 | 105 | 8.0 | 16.1 | 0.00 | 0.00 | 0.00 | 56 | 829.6 |
| 20260906171515 | 25 | 136 | 8.0 | 14.5 | 0.00 | 0.00 | 0.00 | 57 | 829.7 |
| 20260906171013 | 25 | 55 | 8.0 | 14.5 | 0.00 | 0.00 | 0.00 | 56 | 829.7 |
| 20260906170456 | 25 | 98 | 8.0 | 14.5 | 0.00 | 0.00 | 0.00 | 57 | 829.7 |
| 20260906165929 | 25 | 85 | 6.4 | 14.5 | 0.00 | 0.00 | 0.00 | 58 | 829.8 |
| 20260906165428 | 25 | 267 | 6.4 | 14.5 | 0.00 | 0.00 | 0.00 | 60 | 830.0 |
| 20260906164918 | 24 | 130 | 6.4 | 14.5 | 0.00 | 0.00 | 0.00 | 60 | 830.0 |
| 20260906164418 | 24 | 116 | 4.8 | 11.3 | 0.00 | 0.00 | 0.00 | 61 | 830.0 |
| 20260906163913 | 24 | 129 | 6.4 | 12.9 | 0.00 | 0.00 | 0.00 | 61 | 830.0 |
| 20260906163413 | 24 | 53 | 6.4 | 12.9 | 0.00 | 0.00 | 0.00 | 61 | 829.9 |
| 20260906162911 | 24 | 74 | 6.4 | 11.3 | 0.00 | 0.00 | 0.00 | 61 | 829.9 |
| 20260906162402 | 24 | 76 | 4.8 | 11.3 | 0.00 | 0.00 | 0.00 | 60 | 830.0 |
| 20260906161902 | 23 | 135 | 4.8 | 12.9 | 0.00 | 0.00 | 0.00 | 60 | 830.1 |
| 20260906161402 | 23 | 74 | 6.4 | 12.9 | 0.00 | 0.00 | 0.00 | 59 | 830.0 |
| 20260906160902 | 24 | 67 | 4.8 | 12.9 | 0.00 | 0.00 | 0.00 | 59 | 830.0 |
| 20260906160624 | 24 | 59 | 6.4 | 12.9 | 0.00 | 0.00 | 0.00 | 56 | 829.9 |
| 20260906155858 | 24 | 136 | 3.2 | 12.9 | 0.00 | 0.00 | 0.00 | 58 | 829.9 |
| 20260906155358 | 23 | 116 | 3.2 | 6.4 | 0.00 | 0.00 | 0.00 | 62 | 829.8 |
| 20260906155116 | 23 | 129 | 3.2 | 11.3 | 0.00 | 0.00 | 0.00 | 63 | 829.9 |
| 20260906154358 | 23 | 123 | 3.2 | 11.3 | 0.00 | 0.00 | 0.00 | 64 | 829.8 |
| 20260906153858 | 23 | 55 | 3.2 | 9.7 | 0.00 | 0.00 | 0.00 | 65 | 829.9 |
| 20260906153358 | 22 | 176 | 3.2 | 8.0 | 0.00 | 0.00 | 0.00 | 66 | 829.9 |
| 20260906152858 | 22 | 92 | 3.2 | 6.4 | 0.00 | 0.00 | 0.00 | 68 | 830.0 |
| 20260906151904 | 21 | 166 | 3.2 | 6.4 | 0.00 | 0.00 | 0.00 | 71 | 830.0 |
| 20260906151341 | 21 | 143 | 1.6 | 6.4 | 0.00 | 0.00 | 0.00 | 72 | 830.1 |
| 20260906150842 | 21 | 5 | 1.6 | 6.4 | 0.00 | 0.00 | 0.00 | 73 | 830.2 |
| 20260906150343 | 20 | 115 | 1.6 | 6.4 | 0.00 | 0.00 | 0.00 | 74 | 830.1 |
| 20260906145841 | 20 | 122 | 1.6 | 6.4 | 0.00 | 0.00 | 0.00 | 75 | 830.2 |
| 20260906145343 | 20 | 161 | 1.6 | 4.8 | 0.00 | 0.00 | 0.00 | 76 | 830.2 |
| 20260906144840 | 20 | 51 | 1.6 | 4.8 | 0.00 | 0.00 | 0.00 | 76 | 830.2 |
| 20260906144343 | 20 | 90 | 3.2 | 9.7 | 0.00 | 0.00 | 0.00 | 76 | 830.2 |
| 20260906143822 | 20 | 91 | 4.8 | 9.7 | 0.00 | 0.00 | 0.00 | 75 | 830.1 |
| 20260906143512 | 20 | 100 | 3.2 | 8.0 | 0.00 | 0.00 | 0.00 | 74 | 830.1 |
| 20260906142442 | 20 | 105 | 3.2 | 8.0 | 0.00 | 0.00 | 0.00 | 76 | 830.1 |
| 20260906141723 | 20 | 104 | 4.8 | 9.7 | 0.00 | 0.00 | 0.00 | 77 | 830.1 |
| 20260906141222 | 19 | 100 | 4.8 | 9.7 | 0.00 | 0.00 | 0.00 | 78 | 830.1 |
| 20260906140941 | 19 | 74 | 4.8 | 9.7 | 0.00 | 0.00 | 0.00 | 78 | 830.1 |
| 20260906140219 | 18 | 89 | 4.8 | 9.7 | 0.00 | 0.00 | 0.00 | 80 | 830.1 |
| 20260906135718 | 18 | 94 | 3.2 | 8.0 | 0.00 | 0.00 | 0.00 | 81 | 830.0 |
| 20260906135216 | 18 | 123 | 1.6 | 4.8 | 0.00 | 0.00 | 0.00 | 82 | 829.9 |
| 20260906134718 | 17 | 105 | 0.0 | 4.8 | 0.00 | 0.00 | 0.00 | 83 | 829.9 |
| 20260906134429 | 17 | 217 | 0.0 | 3.2 | 0.00 | 0.00 | 0.00 | 84 | 830.0 |
| 20260906133208 | 17 | 291 | 0.0 | 1.6 | 0.00 | 0.00 | 0.00 | 83 | 830.0 |
| 20260906132702 | 16 | 291 | 0.0 | 1.6 | 0.00 | 0.00 | 0.00 | 81 | 830.0 |
| 20260906132159 | 16 | 291 | 0.0 | 1.6 | 0.00 | 0.00 | 0.00 | 81 | 830.0 |
| 20260906131659 | 16 | 291 | 1.6 | 3.2 | 0.00 | 0.00 | 0.00 | 81 | 829.9 |
| 20260906131154 | 16 | 291 | 1.6 | 3.2 | 0.00 | 0.00 | 0.00 | 82 | 829.9 |
| 20260906130646 | 16 | 291 | 1.6 | 4.8 | 0.00 | 0.00 | 0.00 | 82 | 829.9 |
| 20260906130144 | 16 | 248 | 3.2 | 4.8 | 0.00 | 0.00 | 0.00 | 83 | 829.8 |
| 20260906125647 | 16 | 246 | 3.2 | 4.8 | 0.00 | 0.00 | 0.00 | 82 | 829.8 |
| 20260906125135 | 16 | 246 | 3.2 | 6.4 | 0.00 | 0.00 | 0.00 | 83 | 829.8 |
| 20260906124633 | 16 | 252 | 3.2 | 6.4 | 0.00 | 0.00 | 0.00 | 81 | 829.8 |
| 20260906124122 | 16 | 290 | 1.6 | 4.8 | 0.00 | 0.00 | 0.00 | 80 | 829.7 |
| 20260906123622 | 16 | 277 | 1.6 | 3.2 | 0.00 | 0.00 | 0.00 | 80 | 829.8 |
| 20260906122621 | 16 | 277 | 1.6 | 4.8 | 0.00 | 0.00 | 0.00 | 81 | 829.8 |
| 20260906122122 | 16 | 233 | 1.6 | 4.8 | 0.00 | 0.00 | 0.00 | 82 | 829.8 |
| 20260906121620 | 16 | 273 | 1.6 | 3.2 | 0.00 | 0.00 | 0.00 | 82 | 829.8 |
| 20260906121115 | 16 | 273 | 1.6 | 3.2 | 0.00 | 0.00 | 0.00 | 82 | 829.7 |
| 20260906120616 | 16 | 273 | 1.6 | 4.8 | 0.00 | 0.00 | 0.00 | 82 | 829.7 |
| 20260906120115 | 17 | 273 | 3.2 | 4.8 | 0.00 | 0.00 | 0.00 | 83 | 829.5 |
| 20260906115105 | 17 | 253 | 1.6 | 6.4 | 0.00 | 0.00 | 0.00 | 84 | 829.5 |
| 20260906114606 | 17 | 250 | 1.6 | 4.8 | 0.00 | 0.00 | 0.00 | 82 | 829.7 |
| 20260906114106 | 17 | 250 | 3.2 | 4.8 | 0.00 | 0.00 | 0.00 | 83 | 829.8 |
| 20260906113834 | 17 | 290 | 3.2 | 4.8 | 0.00 | 0.00 | 0.00 | 82 | 829.6 |
| 20260906113103 | 17 | 290 | 1.6 | 4.8 | 0.00 | 0.00 | 0.00 | 81 | 829.7 |
| 20260906112602 | 17 | 290 | 0.0 | 3.2 | 0.00 | 0.00 | 0.00 | 80 | 829.6 |
| 20260906112100 | 17 | 290 | 0.0 | 3.2 | 0.00 | 0.00 | 0.00 | 78 | 829.7 |
| 20260906111558 | 17 | 290 | 1.6 | 3.2 | 0.00 | 0.00 | 0.00 | 78 | 829.5 |
| 20260906111058 | 17 | 290 | 3.2 | 4.8 | 0.00 | 0.00 | 0.00 | 77 | 829.4 |
| 20260906110556 | 17 | 290 | 3.2 | 4.8 | 0.00 | 0.00 | 0.00 | 77 | 829.4 |
| 20260906110056 | 17 | 294 | 1.6 | 4.8 | 0.00 | 0.00 | 0.00 | 77 | 829.5 |
| 20260906105544 | 17 | 317 | 1.6 | 4.8 | 0.00 | 0.00 | 0.00 | 76 | 829.6 |
| 20260906105042 | 17 | 317 | 3.2 | 4.8 | 0.00 | 0.00 | 0.00 | 74 | 829.6 |
| 20260906104540 | 17 | 338 | 3.2 | 6.4 | 0.00 | 0.00 | 0.00 | 71 | 829.6 |
| 20260906104043 | 17 | 330 | 3.2 | 6.4 | 0.00 | 0.00 | 0.00 | 69 | 829.7 |
| 20260906103534 | 17 | 347 | 1.6 | 3.2 | 0.00 | 0.00 | 0.00 | 65 | 829.8 |
| 20260906103031 | 17 | 355 | 1.6 | 3.2 | 0.00 | 0.00 | 0.00 | 64 | 829.7 |
| 20260906102520 | 17 | 319 | 1.6 | 3.2 | 0.00 | 0.00 | 0.00 | 64 | 829.7 |
| 20260906102018 | 18 | 214 | 1.6 | 3.2 | 0.00 | 0.00 | 0.00 | 63 | 829.6 |
| 20260906101518 | 18 | 214 | 1.6 | 3.2 | 0.00 | 0.00 | 0.00 | 64 | 829.6 |
| 20260906101016 | 18 | 214 | 1.6 | 4.8 | 0.00 | 0.00 | 0.00 | 62 | 829.5 |
| 20260906100736 | 18 | 207 | 1.6 | 4.8 | 0.00 | 0.00 | 0.00 | 62 | 829.6 |
| 20260906100008 | 18 | 254 | 1.6 | 4.8 | 0.00 | 0.00 | 0.00 | 61 | 829.6 |
| 20260906095506 | 18 | 254 | 3.2 | 4.8 | 0.00 | 0.00 | 0.00 | 61 | 829.7 |
| 20260906095003 | 18 | 277 | 3.2 | 6.4 | 0.00 | 0.00 | 0.00 | 60 | 829.6 |
| 20260906094730 | 18 | 277 | 3.2 | 6.4 | 0.00 | 0.00 | 0.00 | 60 | 829.5 |
| 20260906094004 | 19 | 219 | 3.2 | 4.8 | 0.00 | 0.00 | 0.00 | 59 | 829.5 |
| 20260906093502 | 19 | 189 | 3.2 | 6.4 | 0.00 | 0.00 | 0.00 | 58 | 829.5 |
| 20260906093222 | 19 | 209 | 3.2 | 6.4 | 0.00 | 0.00 | 0.00 | 58 | 829.4 |
| 20260906092444 | 19 | 195 | 3.2 | 6.4 | 0.00 | 0.00 | 0.00 | 58 | 829.2 |
| 20260906092208 | 19 | 217 | 3.2 | 6.4 | 0.00 | 0.00 | 0.00 | 57 | 829.0 |
| 20260906091422 | 20 | 230 | 3.2 | 4.8 | 0.00 | 0.00 | 0.00 | 56 | 829.0 |
| 20260906090920 | 20 | 281 | 1.6 | 4.8 | 0.00 | 0.00 | 0.00 | 55 | 828.9 |
| 20260906090419 | 20 | 114 | 0.0 | 1.6 | 0.00 | 0.00 | 0.00 | 54 | 828.8 |
| 20260906085918 | 20 | 114 | 0.0 | 3.2 | 0.00 | 0.00 | 0.00 | 53 | 828.8 |
| 20260906085638 | 20 | 114 | 1.6 | 4.8 | 0.00 | 0.00 | 0.00 | 53 | 828.8 |
| 20260906084911 | 20 | 114 | 1.6 | 4.8 | 0.00 | 0.00 | 0.00 | 53 | 828.8 |
| 20260906084409 | 20 | 182 | 1.6 | 4.8 | 0.00 | 0.00 | 0.00 | 53 | 828.8 |
| 20260906083908 | 20 | 148 | 1.6 | 4.8 | 0.00 | 0.00 | 0.00 | 53 | 828.8 |
| 20260906083405 | 21 | 74 | 1.6 | 4.8 | 0.00 | 0.00 | 0.00 | 53 | 828.7 |
| 20260906082904 | 21 | 73 | 0.0 | 3.2 | 0.00 | 0.00 | 0.00 | 52 | 828.8 |
| 20260906082401 | 21 | 73 | 1.6 | 6.4 | 0.00 | 0.00 | 0.00 | 51 | 828.8 |
| 20260906082119 | 21 | 73 | 3.2 | 8.0 | 0.00 | 0.00 | 0.00 | 52 | 828.8 |
| 20260906081359 | 21 | 87 | 1.6 | 8.0 | 0.00 | 0.00 | 0.00 | 51 | 828.7 |
| 20260906080858 | 21 | 227 | 0.0 | 3.2 | 0.00 | 0.00 | 0.00 | 50 | 828.8 |
| 20260906080358 | 21 | 227 | 1.6 | 3.2 | 0.00 | 0.00 | 0.00 | 50 | 828.8 |
| 20260906075856 | 21 | 273 | 1.6 | 4.8 | 0.00 | 0.00 | 0.00 | 50 | 828.8 |
| 20260906075354 | 21 | 273 | 3.2 | 6.4 | 0.00 | 0.00 | 0.00 | 50 | 828.8 |
| 20260906074852 | 21 | 273 | 4.8 | 6.4 | 0.00 | 0.00 | 0.00 | 50 | 828.8 |
| 20260906074351 | 21 | 270 | 4.8 | 6.4 | 0.00 | 0.00 | 0.00 | 50 | 828.9 |
| 20260906073848 | 21 | 264 | 3.2 | 6.4 | 0.00 | 0.00 | 0.00 | 50 | 828.9 |
| 20260906073346 | 22 | 290 | 3.2 | 4.8 | 0.00 | 0.00 | 0.00 | 49 | 829.0 |
| 20260906072845 | 22 | 182 | 3.2 | 4.8 | 0.00 | 0.00 | 0.00 | 49 | 829.0 |
| 20260906072333 | 22 | 115 | 3.2 | 4.8 | 0.00 | 0.00 | 0.00 | 49 | 829.0 |
| 20260906072053 | 22 | 256 | 3.2 | 4.8 | 0.00 | 0.00 | 0.00 | 49 | 828.9 |
| 20260906071330 | 22 | 256 | 3.2 | 4.8 | 0.00 | 0.00 | 0.00 | 49 | 828.8 |
| 20260906071054 | 22 | 272 | 1.6 | 3.2 | 0.00 | 0.00 | 0.00 | 49 | 828.8 |
| 20260906070324 | 22 | 272 | 1.6 | 3.2 | 0.00 | 0.00 | 0.00 | 49 | 828.8 |
| 20260906065822 | 22 | 313 | 1.6 | 4.8 | 0.00 | 0.00 | 0.00 | 48 | 828.9 |
| 20260906065321 | 22 | 69 | 0.0 | 4.8 | 0.00 | 0.00 | 0.00 | 48 | 828.9 |
| 20260906065010 | 22 | 263 | 0.0 | 3.2 | 0.00 | 0.00 | 0.00 | 47 | 828.9 |
| 20260906064222 | 22 | 263 | 0.0 | 3.2 | 0.00 | 0.00 | 0.00 | 47 | 828.9 |
| 20260906063716 | 22 | 263 | 0.0 | 3.2 | 0.00 | 0.00 | 0.00 | 47 | 828.9 |
| 20260906063216 | 22 | 240 | 1.6 | 4.8 | 0.00 | 0.00 | 0.00 | 47 | 828.9 |
| 20260906062716 | 22 | 323 | 3.2 | 8.0 | 0.00 | 0.00 | 0.00 | 48 | 828.8 |
| 20260906062159 | 22 | 303 | 6.4 | 8.0 | 0.00 | 0.00 | 0.00 | 48 | 828.9 |
| 20260906061929 | 22 | 293 | 4.8 | 8.0 | 0.00 | 0.00 | 0.00 | 48 | 828.9 |
| 20260906061422 | 22 | 283 | 3.2 | 6.4 | 0.00 | 0.00 | 0.00 | 48 | 829.0 |
| 20260906060700 | 22 | 290 | 4.8 | 8.0 | 0.00 | 0.00 | 0.00 | 48 | 829.1 |
| 20260906060158 | 22 | 291 | 6.4 | 8.0 | 0.00 | 0.00 | 0.00 | 48 | 829.1 |
| 20260906055922 | 23 | 282 | 4.8 | 8.0 | 0.00 | 0.00 | 0.00 | 47 | 829.2 |
| 20260906055414 | 23 | 269 | 3.2 | 6.4 | 0.00 | 0.00 | 0.00 | 46 | 829.2 |
| 20260906054654 | 23 | 196 | 3.2 | 8.0 | 0.00 | 0.00 | 0.00 | 46 | 829.4 |
| 20260906054154 | 23 | 189 | 3.2 | 8.0 | 0.00 | 0.00 | 0.00 | 46 | 829.5 |
| 20260906053648 | 23 | 227 | 3.2 | 6.4 | 0.00 | 0.00 | 0.00 | 45 | 829.6 |
| 20260906053140 | 23 | 135 | 3.2 | 6.4 | 0.00 | 0.00 | 0.00 | 45 | 829.5 |
| 20260906052901 | 24 | 209 | 4.8 | 6.4 | 0.00 | 0.00 | 0.00 | 45 | 829.3 |
| 20260906052133 | 24 | 242 | 3.2 | 6.4 | 0.00 | 0.00 | 0.00 | 45 | 829.1 |
| 20260906051632 | 24 | 255 | 3.2 | 6.4 | 0.00 | 0.00 | 0.00 | 44 | 829.1 |
| 20260906051124 | 24 | 265 | 3.2 | 6.4 | 0.00 | 0.00 | 0.00 | 43 | 829.0 |
| 20260906050625 | 24 | 228 | 3.2 | 6.4 | 0.00 | 0.00 | 0.00 | 43 | 829.0 |
| 20260906050127 | 24 | 134 | 3.2 | 8.0 | 0.00 | 0.00 | 0.00 | 43 | 829.0 |
| 20260906045628 | 24 | 213 | 3.2 | 8.0 | 0.00 | 0.00 | 0.00 | 42 | 829.0 |
| 20260906044536 | 24 | 344 | 1.6 | 4.8 | 0.00 | 0.00 | 0.00 | 42 | 828.8 |
| 20260906044011 | 24 | 268 | 3.2 | 4.8 | 0.00 | 0.00 | 0.00 | 42 | 828.7 |
| 20260906043447 | 24 | 268 | 3.2 | 4.8 | 0.00 | 0.00 | 0.00 | 42 | 828.7 |
| 20260906042916 | 24 | 270 | 1.6 | 4.8 | 0.00 | 0.00 | 0.00 | 43 | 828.8 |
| 20260906042351 | 24 | 254 | 3.2 | 8.0 | 0.00 | 0.00 | 0.00 | 43 | 828.7 |
| 20260906041819 | 24 | 247 | 4.8 | 8.0 | 0.00 | 0.00 | 0.00 | 44 | 828.6 |
| 20260906041250 | 24 | 245 | 6.4 | 9.7 | 0.00 | 0.00 | 0.00 | 45 | 828.6 |
| 20260906040721 | 24 | 236 | 6.4 | 9.7 | 0.00 | 0.00 | 0.00 | 44 | 828.5 |
| 20260906040217 | 24 | 254 | 4.8 | 8.0 | 0.00 | 0.00 | 0.00 | 44 | 828.4 |
| 20260906035708 | 24 | 237 | 3.2 | 4.8 | 0.00 | 0.00 | 0.00 | 43 | 828.3 |
| 20260906035210 | 25 | 279 | 3.2 | 4.8 | 0.00 | 0.00 | 0.00 | 43 | 828.1 |
| 20260906034648 | 25 | 327 | 3.2 | 4.8 | 0.00 | 0.00 | 0.00 | 42 | 828.0 |
| 20260906034116 | 25 | 346 | 4.8 | 8.0 | 0.00 | 0.00 | 0.00 | 41 | 828.0 |
| 20260906033556 | 26 | 344 | 8.0 | 14.5 | 0.00 | 0.00 | 0.00 | 41 | 828.0 |
| 20260906032457 | 26 | 124 | 8.0 | 17.7 | 0.00 | 0.00 | 0.00 | 39 | 828.0 |
| 20260906031933 | 27 | 126 | 4.8 | 11.3 | 0.00 | 0.00 | 0.00 | 37 | 827.9 |
| 20260906031403 | 27 | 191 | 8.0 | 12.9 | 0.00 | 0.00 | 0.00 | 36 | 827.7 |
| 20260906030828 | 27 | 134 | 6.4 | 12.9 | 0.00 | 0.00 | 0.00 | 36 | 827.7 |
| 20260906025743 | 27 | 264 | 8.0 | 14.5 | 0.00 | 0.00 | 0.00 | 34 | 827.3 |
| 20260906025245 | 27 | 275 | 9.7 | 16.1 | 0.00 | 0.00 | 0.00 | 35 | 827.2 |
| 20260906024722 | 27 | 270 | 12.9 | 17.7 | 0.00 | 0.00 | 0.00 | 35 | 827.3 |
| 20260906024221 | 27 | 286 | 12.9 | 20.9 | 0.00 | 0.00 | 0.00 | 35 | 827.3 |
| 20260906023720 | 27 | 275 | 9.7 | 20.9 | 0.00 | 0.00 | 0.00 | 35 | 827.3 |
| 20260906023220 | 27 | 262 | 9.7 | 14.5 | 0.00 | 0.00 | 0.00 | 36 | 827.4 |
| 20260906022714 | 27 | 264 | 9.7 | 14.5 | 0.00 | 0.00 | 0.00 | 36 | 827.4 |
| 20260906022214 | 27 | 285 | 9.7 | 14.5 | 0.00 | 0.00 | 0.00 | 36 | 827.4 |
| 20260906021938 | 27 | 246 | 9.7 | 14.5 | 0.00 | 0.00 | 0.00 | 37 | 827.3 |
| 20260906021152 | 27 | 255 | 11.3 | 25.7 | 0.00 | 0.00 | 0.00 | 37 | 827.4 |
| 20260906020628 | 27 | 257 | 14.5 | 25.7 | 0.00 | 0.00 | 0.00 | 37 | 827.4 |
| 20260906020131 | 27 | 249 | 17.7 | 27.4 | 0.00 | 0.00 | 0.00 | 37 | 827.3 |
| 20260906015558 | 27 | 287 | 19.3 | 32.2 | 0.00 | 0.00 | 0.00 | 37 | 827.2 |
| 20260906015253 | 27 | 273 | 19.3 | 32.2 | 0.00 | 0.00 | 0.00 | 36 | 827.2 |
| 20260906014725 | 27 | 287 | 20.9 | 30.6 | 0.00 | 0.00 | 0.00 | 37 | 827.2 |
| 20260906013932 | 27 | 290 | 20.9 | 29.0 | 0.00 | 0.00 | 0.00 | 37 | 827.2 |
| 20260906013409 | 27 | 294 | 19.3 | 29.0 | 0.00 | 0.00 | 0.00 | 36 | 827.3 |
| 20260906012845 | 27 | 274 | 19.3 | 27.4 | 0.00 | 0.00 | 0.00 | 37 | 827.1 |
| 20260906012347 | 27 | 290 | 19.3 | 29.0 | 0.00 | 0.00 | 0.00 | 37 | 827.2 |
| 20260906011813 | 27 | 282 | 19.3 | 29.0 | 0.00 | 0.00 | 0.00 | 37 | 827.3 |
| 20260906011245 | 27 | 300 | 20.9 | 32.2 | 0.00 | 0.00 | 0.00 | 37 | 827.2 |
| 20260906010716 | 27 | 289 | 19.3 | 29.0 | 0.00 | 0.00 | 0.00 | 37 | 827.4 |
| 20260906010208 | 28 | 298 | 20.9 | 29.0 | 0.00 | 0.00 | 0.00 | 37 | 827.3 |
| 20260906005151 | 28 | 289 | 22.5 | 32.2 | 0.00 | 0.00 | 0.00 | 36 | 827.4 |
| 20260906004616 | 28 | 298 | 19.3 | 32.2 | 0.00 | 0.00 | 0.00 | 36 | 827.4 |
| 20260906004052 | 28 | 315 | 19.3 | 30.6 | 0.00 | 0.00 | 0.00 | 36 | 827.6 |
| 20260906003553 | 28 | 286 | 16.1 | 27.4 | 0.00 | 0.00 | 0.00 | 36 | 827.5 |
| 20260906003031 | 28 | 309 | 16.1 | 27.4 | 0.00 | 0.00 | 0.00 | 35 | 827.5 |
| 20260906002507 | 28 | 306 | 19.3 | 27.4 | 0.00 | 0.00 | 0.00 | 35 | 827.5 |
| 20260906001941 | 29 | 272 | 20.9 | 27.4 | 0.00 | 0.00 | 0.00 | 34 | 827.5 |
| 20260906001409 | 29 | 309 | 17.7 | 30.6 | 0.00 | 0.00 | 0.00 | 34 | 827.5 |
| 20260906000845 | 30 | 286 | 16.1 | 29.0 | 0.00 | 0.00 | 0.00 | 33 | 827.5 |
| 20260906000549 | 30 | 292 | 16.1 | 29.0 | 0.00 | 0.00 | 0.00 | 32 | 827.4 |
| 20260905235828 | 30 | 310 | 17.7 | 29.0 | 0.00 | 0.00 | 0.00 | 32 | 827.3 |
| 20260905235319 | 30 | 273 | 16.1 | 29.0 | 0.00 | 0.00 | 0.00 | 32 | 827.6 |
| 20260905234821 | 30 | 279 | 11.3 | 20.9 | 0.00 | 0.00 | 0.00 | 32 | 827.6 |
| 20260905234321 | 30 | 317 | 11.3 | 19.3 | 0.00 | 0.00 | 0.00 | 32 | 827.6 |
| 20260905233820 | 30 | 329 | 11.3 | 19.3 | 0.00 | 0.00 | 0.00 | 32 | 827.5 |
| 20260905233308 | 30 | 319 | 8.0 | 14.5 | 0.00 | 0.00 | 0.00 | 31 | 827.4 |
| 20260905232807 | 30 | 321 | 9.7 | 16.1 | 0.00 | 0.00 | 0.00 | 31 | 827.3 |
| 20260905232307 | 30 | 329 | 11.3 | 17.7 | 0.00 | 0.00 | 0.00 | 31 | 827.2 |
| 20260905231809 | 30 | 332 | 14.5 | 25.7 | 0.00 | 0.00 | 0.00 | 31 | 827.3 |
| 20260905231306 | 31 | 348 | 11.3 | 25.7 | 0.00 | 0.00 | 0.00 | 31 | 827.2 |
| 20260905230804 | 31 | 5 | 8.0 | 11.3 | 0.00 | 0.00 | 0.00 | 29 | 827.2 |
| 20260905230304 | 31 | 48 | 8.0 | 14.5 | 0.00 | 0.00 | 0.00 | 29 | 827.0 |
| 20260905225804 | 31 | 355 | 8.0 | 14.5 | 0.00 | 0.00 | 0.00 | 29 | 827.0 |
| 20260905225531 | 31 | 41 | 8.0 | 12.9 | 0.00 | 0.00 | 0.00 | 29 | 826.9 |
| 20260905224806 | 31 | 32 | 8.0 | 11.3 | 0.00 | 0.00 | 0.00 | 30 | 827.0 |
| 20260905224258 | 31 | 27 | 6.4 | 11.3 | 0.00 | 0.00 | 0.00 | 29 | 826.9 |
| 20260905223757 | 31 | 18 | 6.4 | 11.3 | 0.00 | 0.00 | 0.00 | 29 | 826.9 |
| 20260905223256 | 31 | 36 | 8.0 | 14.5 | 0.00 | 0.00 | 0.00 | 29 | 827.0 |
| 20260905223011 | 31 | 34 | 8.0 | 14.5 | 0.00 | 0.00 | 0.00 | 29 | 826.9 |